www.pogodaiklimat.ru

Погода и климат >> Архив погоды >> Индонезия >> Медан Полония


ПОГОДА в Медан Полония

  • Прогноз погоды в Медан Полония
  • Монитор погоды в Медан Полония

АРХИВ ПОГОДЫ в Медан Полония

Время (UTC), дата Ветер
(напр.,м/с)
 
Видим.   Явления Облачность Т
(С)
Тd
(С)
f
(%)
Тe
(С)
Тes
(С)
Комфортность P
(гПа)
Po
(гПа)
Тmin
(С)
Tmax
(С)
R
(мм)
R24
(мм)
S
(см)
09 14.01 СЗ 8 8000 м 9/4 500 м
[Cu Sc Ac As Cs]
+31.2 +25.8 73 +46 +47 опасность
перегрева
1006.4 1005.8
12 14.01 СЗ 2 7000 м зарница 8/4 500 м
[Cb cap Ac As Cs]
+27.8 +25.1 85 +40 +40 очень
душно
1008.8 1007.9 +32.9
15 14.01 З 2 6000 м 9/4 500 м
[Sc Ac As Cs]
+26.3 +24.7 91 +37 +37 очень
душно
1010.8 1010.0
18 14.01 ЮЗ 2 5000 м мгла 9/5 500 м
[Sc Ac As Cs]
+26.0 +24.6 92 +37 +37 очень
душно
1010.3 1009.4
21 14.01 ЮЗ 2 4000 м мгла 9/5 500 м
[Sc Ac As Cs]
+25.0 +24.1 95 +34 +34 очень
душно
1008.4 1007.4
00 15.01 З 2 5000 м мгла 6/4 500 м
[Sc Ac trans Ci fib]
+24.6 +24.2 98 +34 +34 очень
душно
1009.5 1008.6 +24.0
03 15.01 З 3 10 км 6/5 500 м
[Cu Sc Ac trans Ci fib]
+31.3 +25.4 71 +46 +50 опасность
перегрева
1011.6 1010.6
06 15.01 С 6 10 км 8/5 500 м
[Sc Ac trans Ci fib]
+30.8 +26.1 76 +46 +49 опасность
перегрева
1009.9 1008.9
09 15.01 С 5 10 км 9/5 500 м
[Sc Ac As Ci fib]
+29.8 +25.0 75 +43 +44 опасность
перегрева
1007.4 1006.5
12 15.01 СЗ 2 10 км 9/5 500 м
[Cu med, cong Ac As Cs]
+28.3 +25.5 85 +42 +42 опасность
перегрева
1009.4 1008.4 +32.3
15 15.01 ЮЗ 3 10 км 8/4 540 м
[Sc Ac As Ci sp]
+26.7 +25.0 90 +38 +38 очень
душно
1011.7 1010.7
18 15.01 штиль 0 10 км 6/4 540 м
[Sc Ac trans Ci sp]
+25.0 +24.1 95 +34 +34 очень
душно
1010.9 1009.9
21 15.01 штиль 0 8000 м 6/4 540 м
[Sc Ac trans Ci sp]
+24.7 +23.8 95 +34 +34 очень
душно
1009.3 1008.3
00 16.01 Ю 2 3000 м дымка 8/4 540 м
[Sc Ac trans Ci sp]
+23.1 +22.7 98 +32 +32 очень
душно
1010.6 1009.7 +23.1
03 16.01 ЮЗ 4 10 км 6/3 540 м
[Cu med, cong Ac lent Cs]
+29.6 +23.0 68 +40 +44 очень
душно
1012.0 1011.1
06 16.01 СЗ 5 10 км 9/4 540 м
[Cu med, cong Ac lent Cs]
+31.3 +23.6 64 +42 +46 опасность
перегрева
1010.0 1009.1
09 16.01 СЗ 6 10 км 9/4 540 м
[Cu med, cong Ac lent Cs]
+30.2 +25.5 76 +44 +45 опасность
перегрева
1007.5 1006.6
12 16.01 СЗ 3 10 км 9/4 540 м
[Cb cap Ac As Cs]
+27.7 +25.6 88 +41 +41 опасность
перегрева
1008.7 1007.9 +32.1
15 16.01 ЮЗ 2 5000 м мгла 8/3 500 м
[Sc Ac As Cs]
+26.3 +25.3 94 +38 +38 очень
душно
1011.0 1010.2
18 16.01 ЮЗ 3 4000 м мгла 8/4 500 м
[Sc Ac As Cs]
+25.5 +24.9 96 +36 +36 очень
душно
1010.4 1009.5
21 16.01 ЮЗ 3 3000 м дымка 8/4 500 м
[Sc Ac As Cs]
+24.8 +24.5 98 +35 +35 очень
душно
1008.5 1007.6
00 17.01 ЮЗ 3 2500 м дымка 9/4 500 м
[Cu Sc Ac As Cs]
+24.4 +24.3 99 +34 +34 очень
душно
1008.9 1008.0 +23.0
03 17.01 З 3 8000 м 9/5 480 м
[Cb cap Ac As Cs]
+28.7 +23.7 74 +39 +42 очень
душно
1011.1 1010.1
06 17.01 СЗ 5 10 км 10/5 500 м
[Cu med, cong Ac As Cs]
+31.3 +24.1 66 +43 +46 опасность
перегрева
1008.9 1008.0
09 17.01 СЗ 6 10 км 9/4 500 м
[Cu med, cong Ac As Cs]
+31.2 +25.0 70 +45 +46 опасность
перегрева
1006.7 1005.7
12 17.01 СЗ 3 8000 м 9/5 500 м
[Cb cap Ac As Cs]
+28.2 +25.4 85 +41 +41 опасность
перегрева
1008.0 1007.1 +31.3
15 17.01 З 3 6000 м 9/5 500 м
[Cu Sc Ac As Cs]
+27.7 +25.3 87 +40 +40 очень
душно
1010.6 1009.6
18 17.01 ЮЗ 2 5000 м мгла 9/5 500 м
[Cb cap Ac As Cs]
+26.6 +25.2 92 +38 +38 очень
душно
1009.6 1008.8
21 17.01 СВ 2 8000 м гроза без осадков 9/5 480 м
[Cb cap Ac As Cs]
+24.5 +24.1 98 +34 +34 очень
душно
1008.8 1007.8
00 18.01 ЮВ 2 5000 м мгла {гроза, дождь} 10/5 300 м
[Cb cap Ac As Cs]
+24.4 +24.3 99 +34 +34 очень
душно
1009.5 1008.7 +24.2 0.3
03 18.01 ЮВ 3 10 км 10/4 500 м
[Sc Ac As Cs]
+26.1 +24.4 90 +36 +39 очень
душно
1011.7 1010.8
06 18.01 СВ 2 10 км 9/4 500 м
[Cu Sc Ac As Cs]
+29.0 +23.5 72 +39 +46 очень
душно
1009.8 1008.9
09 18.01 В 2 10 км 9/5 500 м
[Cu Sc Ac As Cs]
+30.1 +22.9 65 +40 +42 очень
душно
1007.3 1006.4
12 18.01 штиль 0 7000 м 9/4 500 м
[Sc Ac As Cs]
+27.6 +23.9 80 +38 +38 очень
душно
1008.8 1007.9 +30.3
15 18.01 ЮЗ 3 5000 м мгла 8/4 540 м
[Sc Ac As Ci sp]
+26.3 +25.2 94 +38 +38 очень
душно
1010.9 1010.0
18 18.01 З 2 6000 м 9/5 540 м
[Sc Ac As Ci sp]
+25.0 +24.4 96 +35 +35 очень
душно
1009.9 1009.0
21 18.01 штиль 0 4000 м дымка 9/5 540 м
[Sc Ac As Ci sp]
+24.7 +24.1 96 +34 +34 очень
душно
1008.3 1007.5
00 19.01 ЮВ 2 5000 м дымка {дождь} 9/5 540 м
[Sc Ac As Cs]
+24.8 +24.5 98 +35 +35 очень
душно
1009.1 1008.2 +24.3 0.0
03 19.01 ЮЗ 3 6000 м 8/3 500 м
[Sc Ac As Cs]
+30.6 +24.8 71 +43 +48 опасность
перегрева
1010.9 1010.0
06 19.01 СЗ 5 8000 м 9/4 500 м
[Cu Sc Ac As Cs]
+31.4 +24.5 67 +44 +48 опасность
перегрева
1009.3 1008.5
09 19.01 С 5 8000 м 9/4 500 м
[Cu Sc Ac As Cs]
+30.5 +25.6 75 +45 +46 опасность
перегрева
1007.3 1006.4
12 19.01 штиль 0 6000 м зарница 9/5 500 м
[Cb cap Ac As Cs]
+27.1 +24.1 84 +38 +38 очень
душно
1008.7 1007.9 +33.5
15 19.01 Ю 2 5000 м мгла 9/4 540 м
[Sc Ac trans Ci fib]
+25.9 +24.2 90 +36 +36 очень
душно
1011.2 1010.3
18 19.01 штиль 0 3500 м мгла 9/5 500 м
[Sc Ac As Cs]
+26.3 +25.2 94 +38 +38 очень
душно
1010.8 1009.9
21 19.01 ЮЗ 2 5000 м мгла 9/5 500 м
[Sc Ac As Cs]
+26.1 +25.3 95 +38 +38 очень
душно
1008.6 1007.8
00 20.01 штиль 0 3500 м мгла 9/4 300 м
[Cb calv Ac As Cs]
+25.1 +24.4 96 +35 +35 очень
душно
1009.7 1008.9 +24.5
03 20.01 З 5 10 км 9/4 500 м
[Sc Ac As Cs]
+29.0 +25.2 80 +42 +45 опасность
перегрева
1012.0 1011.1
06 20.01 З 6 10 км 9/4 480 м
[Cu Sc Ac As Cs]
+30.4 +26.3 79 +46 +49 опасность
перегрева
1010.3 1009.5
09 20.01 С 5 10 км 9/4 500 м
[Cu med, cong Ac As Cs]
+29.9 +26.3 81 +46 +47 опасность
перегрева
1008.1 1007.2
12 20.01 З 2 8000 м 9/5 500 м
[Cb cap Ac As Cs]
+28.3 +25.5 85 +42 +42 опасность
перегрева
1010.0 1009.2 +30.6
15 20.01 ЮЗ 3 9000 м 10/5 500 м
[Sc Ac As Cs]
+25.4 +24.0 92 +35 +35 очень
душно
1012.6 1011.6
18 20.01 ЮЗ 2 6000 м 10/5 500 м
[Sc Ac As Ci fib]
+25.4 +24.5 95 +36 +36 очень
душно
1011.6 1010.6
21 20.01 З 2 6000 м 8/4 500 м
[Sc Ac trans Ci fib]
+24.8 +24.5 98 +35 +35 очень
душно
1009.3 1008.3
00 21.01 З 2 4000 м дымка 8/5 540 м
[Sc Ac trans Ci sp]
+24.4 +24.1 98 +34 +34 очень
душно
1010.5 1009.5 +24.3
03 21.01 СЗ 5 10 км 9/4 500 м
[Sc Ac As Cs]
+30.4 +24.9 72 +43 +45 опасность
перегрева
1012.7 1011.8
06 21.01 СЗ 6 10 км 9/5 500 м
[Cu med, cong Ac trans Cs]
+29.9 +25.4 77 +44 +46 опасность
перегрева
1011.5 1010.6

 

Местоположение метеостанции Медан Полония (Индонезия): широта 3.57 долгота 98.68 высота над уровнем моря 25 м.

В архиве по умолчанию представлена погода в Медан Полония за последнюю неделю. Архивные данные за месяц целиком и за предыдущие месяцы, начиная с января 2011 года, Вы можете получить, выбрав интересующий диапазон дат из раскрывающегося списка и нажав кнопку "Ввод!".


*Определитесь, кто Вы:
робот инопланетянин человек

Внимание! Время в таблицах - всемирное. Для получения местного времени необходимо прибавить поправку, которая равна 7 ч.

Смотрите также архив погоды в соседних городах и на ближайших метеорологических станциях:

Погода в Белаване (Индонезия) (26 км)
Погода в Сиболге (Индонезия) (226 км)
Погода в Ситаване (Малайзия) (236 км)
Погода в Лхоксёмаве (Индонезия) (247 км)
Погода в Гунунгситоли (Индонезия) (258 км)
Погода в Пенанге (Малайзия) (260 км)
Погода на Авиабазе Баттерворт (Малайзия) (283 км)
Погода в Ипохе (Малайзия) (291 км)
Погода в Меулабохе (Индонезия) (294 км)
Погода на Нагорье Кэмерон (Малайзия) (315 км)

Пояснения к столбцам:

Ветер - указаны скорость ветра в м/с - средняя за 10 мин, порывы в срок и между сроками (в фигурных скобках) и направление, откуда дует ветер: С - северный, СВ - северо-восточный, В - восточный, ЮВ - юго-восточный, Ю - южный, ЮЗ - юго-западный, З - западный, СЗ - северо-западный.
Видимость - горизонтальная дальность видимости в метрах или километрах. При видимости от 1 до 10 км при отсутствии осадков обычно наблюдается дымка, при ухудшении видимости до 1 км и менее - туман. В сухую погоду видимость может ухудшаться дымом, пылью или мглою.
Явления - указаны атмосферные явления, наблюдавшиеся в срок или в последний час перед сроком; фигурными скобками обозначены явления, наблюдавшиеся между сроками (за 1-3 часа до срока); квадратными скобками обозначены град или гололедные отложения с указанием их диаметра в мм.
Облачность - указаны через наклонную черту общая и нижняя облачность в баллах и высота нижней границы облаков в метрах; квадратными скобками обозначены формы облаков: Ci - перистые, Cs - перисто-слоистые, Cc - перисто-кучевые, Ac - высококучевые, As - высокослоистые, Sc - слоисто-кучевые, Ns - слоисто-дождевые, Cu - кучевые, Cb - кучево-дождевые. Подробнее классификацию облаков см. в Атласе облаков (PDF).
T - Температура воздуха - температура, измеренная на высоте 2 м над землей.
Td - Температура точки росы - температура, при понижении до которой содержащийся в воздухе водяной пар достигнет насыщения.
f - Относительная влажность воздуха - влажноcть воздуха, измеренная на высоте 2 м над землей.
Te - Эффективная температура - температура, которую ощущает одетый по сезону человек в тени. Характеристика душности погоды. При расчете учитывается влияние влажности воздуха и скорости ветра на теплоощущения человека.
Tes - Эффективная температура на солнце - температура, которую ощущает человек, с поправкой на солнечный нагрев. Характеристика знойности погоды. Зависит от высоты солнца над горизонтом, облачности и скорости ветра. Ночью, в пасмурную погоду, а также при ветре 12 м/с и более поправка равна нулю.
P - Атмосферное давление - приведенное к уровню моря атмосферное давление.
Po - Атмосферное давление - измеренное на уровне метеостанции атмосферное давление.
Tmin - Минимальная температура - минимум температуры воздуха на высоте 2 м над землей.
Tmax - Максимальная температура - максимум температуры воздуха на высоте 2 м над землей.
R - Количество осадков - Количество выпавших осадков за период времени, мм. При наведении курсора мыши на число - период времени, за который выпало указанное количество осадков.
R24 - Количество осадков - Количество выпавших осадков за 24 часа, мм.
S - Снежный покров - Высота снежного покрова, см. При наведении курсора мыши на число - состояние снежного покрова и степень покрытия местности в баллах.